Location: Unspecified
(45.3839°N, 0.0000°E)
Time: 12:16:56
(UTC+00:00)

EO-1 - Visible Passes

Search period start: 04 April 2026 00:00
Search period end: 14 April 2026 00:00
Orbit: 657 x 671 km, 98.1° (Epoch: 28 March)

Date Brightness Start Highest point End Pass type
(mag) Time Alt. Az. Time Alt. Az. Time Alt. Az.
4 Apr 5.8 02:53:16 10° NNE 02:57:53 70° ESE 02:58:00 70° ESE visible
4 Apr 7.5 04:31:42 10° NNW 04:34:17 15° WNW 04:36:05 12° W visible
5 Apr 8.1 01:48:29 10° NE 01:51:14 16° E 01:51:14 16° E visible
5 Apr 5.8 03:24:09 10° N 03:28:40 58° WNW 03:29:19 52° WSW visible
6 Apr 7.1 02:18:19 10° NNE 02:22:24 31° E 02:22:32 31° E visible
6 Apr 6.7 03:55:20 10° N 03:59:20 30° WNW 04:00:38 26° W visible
7 Apr 5.9 02:48:47 10° NNE 02:53:21 63° ESE 02:53:51 59° SE visible
7 Apr 7.5 04:26:59 10° NNW 04:29:51 17° WNW 04:31:56 13° W visible
8 Apr 8.2 01:44:14 10° NE 01:46:46 14° E 01:47:04 14° E visible
8 Apr 5.7 03:19:37 10° N 03:24:10 65° WNW 03:25:09 50° SW visible
9 Apr 7.3 02:13:54 10° NE 02:17:52 28° E 02:18:22 28° ESE visible
9 Apr 6.6 03:50:45 10° N 03:54:51 33° WNW 03:56:27 26° WSW visible
10 Apr 6.2 02:44:18 10° NNE 02:48:50 57° E 02:49:40 49° SE visible
10 Apr 7.4 04:22:18 10° NNW 04:25:22 18° WNW 04:27:45 13° W visible
11 Apr 8.3 01:40:04 10° ENE 01:42:11 13° E 01:42:52 13° E visible
11 Apr 5.6 03:15:04 10° N 03:19:40 72° WNW 03:20:57 46° SW visible
12 Apr 7.4 02:09:28 10° NE 02:13:19 26° E 02:14:09 24° ESE visible
12 Apr 6.4 03:46:09 10° N 03:50:21 36° WNW 03:52:14 25° WSW visible
13 Apr 6.4 02:39:48 10° NNE 02:44:17 51° E 02:45:27 40° SE visible
13 Apr 7.3 04:17:36 10° NNW 04:20:54 20° WNW 04:23:32 13° WSW visible
